{"data":{"norad_id":65420,"epoch":"2026-05-24T16:24:45.319104Z","epoch_age_seconds":102610,"freshness":"FRESH","line1":"1 65420U 25192S   26144.68385786  .00021886  00000+0  71471-3 0  9991","line2":"2 65420  53.1571 239.0639 0001034  79.3118 280.8000 15.31710515 41024","mean_motion":15.31710515,"eccentricity":0.0001034,"inclination_deg":53.1571,"raan_deg":239.0639,"arg_perigee_deg":79.3118,"mean_anomaly_deg":280.8,"bstar":0.00071471,"rev_number":4102,"period_min":94.01254257238,"perigee_km":470.00048009683,"apogee_km":471.4168213774,"semimajor_km":6848.8456507371,"source":"CELESTRAK","updated_at":"2026-05-25T13:38:20.802681Z"}}